Content
SEND FEEDBACK

Daily
Averages
Monthly
Summary
United States of America

ST. LOUIS - SAINT LOUIS UNIVERSITY, MISSOURI


Home > North America > United States > Missouri
Elevation: 580 feet     Latitude: 38 38N     Longitude: 090 14W

WEATHER
 
SELECT A DAY
Number of Records: 186,481;   Date Range: 1/1/95 - 9/19/14
 
SHARE

PRINT THIS DATA

[ ← Previous Day ]
WEATHER ALMANAC - MARCH 24, 2013
[ Next Day → ]
[ °C ]   °F
Weather ElementAverageHighLow
Temperature33.3 °F39.9 °F (1:53 am)32 °F (11:53 am)
Dewpoint30.3 °F34 °F (2:53 am)28.4 °F (6:42 pm)
Humidity88.9 %96 % (11:53 am)77 % (1:53 am)
Barometer29.69 in29.86 in (1:53 am)29.55 in (8:53 am)
Wind Speed17 mph24.2 mph (6:42 pm)
Wind Gust33.4 mph (6:42 pm)
Weather ElementAverage
Visibility1.9 mi
Wind DirectionSW (228.8 °)

Weather ElementTotal
Precipitation0.89 in
Heating Degree Days29.1 (Base 65)
Averaged from 57 records on March 24, 2013
WEATHER CONDITIONS BREAKOUT
WIND DIRECTION BREAKOUT
WEATHER BY HOUR - MARCH 24, 2013
[ °C ]   °F
Local TimeTemperatureDewpointHumidityBarometerVisibilityWind DirectionWind SpeedGust SpeedPrecipitationEventsConditions
1:53 AM39.9 °F33.1 °F77 %29.86 in7.0 miNE (40°)12.7 mph0.00 inRainLight Rain
2:04 AM39.2 °F33.8 °F81 %29.85 in6.0 miNE (40°)12.7 mph0.00 inRainLight Rain
2:30 AM37.4 °F33.8 °F87 %29.82 in4.0 miNNE (30°)16.1 mph0.01 inRainLight Rain
2:37 AM37.4 °F33.8 °F87 %29.81 in4.0 miNNE (30°)12.7 mph20.7 mph0.01 inRainLight Rain
2:45 AM37.4 °F33.8 °F87 %29.79 in3.0 miNE (40°)16.1 mph23.0 mph0.01 inOvercast
2:53 AM37.0 °F34.0 °F89 %29.79 in3.0 miNE (40°)17.3 mph24.2 mph0.01 inOvercast
3:03 AM35.6 °F33.8 °F93 %29.79 in4.0 miNE (40°)13.8 mph23.0 mph0.00 inOvercast
3:53 AM35.1 °F32.0 °F89 %29.81 in7.0 miNNE (30°)13.8 mph0.00 inOvercast
4:53 AM34.0 °F32.0 °F92 %29.74 in4.0 miNE (50°)16.1 mph24.2 mph0.00 inOvercast
5:53 AM34.0 °F30.9 °F89 %29.73 in7.0 miNE (40°)13.8 mphOvercast
6:53 AM34.0 °F30.9 °F89 %29.68 in4.0 miENE (60°)15.0 mphOvercast
7:53 AM34.0 °F30.9 °F89 %29.61 in2.5 miENE (60°)16.1 mph0.00 inOvercast
8:12 AM33.8 °F30.2 °F87 %29.63 in3.0 miEast (80°)11.5 mph18.4 mph0.00 inOvercast
8:49 AM33.8 °F30.2 °F87 %29.56 in2.5 miEast (80°)18.4 mph0.02 inSnowLight Snow
8:53 AM34.0 °F30.9 °F89 %29.55 in2.0 miEast (80°)23.0 mph27.6 mph0.02 inSnowLight Snow
9:00 AM33.8 °F30.2 °F87 %29.55 in1.2 miEast (80°)20.7 mph29.9 mph0.03 inSnowLight Snow
9:09 AM33.8 °F30.2 °F87 %29.56 in3.0 miENE (70°)15.0 mph28.8 mph0.03 inRainLight Rain
9:42 AM33.8 °F30.2 °F87 %29.65 in1.8 miWest (270°)10.4 mph0.08 inRainHeavy Rain
9:53 AM33.1 °F30.9 °F92 %29.65 in0.8 miWNW (300°)8.1 mph0.14 inSnowHeavy Snow
10:03 AM33.8 °F30.2 °F87 %29.62 in0.8 miNorth0.04 inSnowHeavy Snow
10:07 AM33.8 °F30.2 °F87 %29.63 in1.0 miNNW (340°)11.5 mph0.04 inSnowHeavy Snow
10:17 AM33.8 °F30.2 °F87 %29.62 in0.8 miNorth (350°)11.5 mph0.05 inSnowHeavy Snow
10:34 AM33.8 °F30.2 °F87 %29.61 in0.8 miNorth (360°)13.8 mph0.05 inSnowHeavy Snow
10:45 AM33.8 °F30.2 °F87 %29.61 in1.0 miNorth (360°)12.7 mph0.05 inSnowHeavy Snow
10:53 AM33.1 °F30.9 °F92 %29.60 in1.5 miNorth (350°)13.8 mph0.05 inSnowLight Snow
11:53 AM32.0 °F30.9 °F96 %29.59 in0.5 miNorth (360°)12.7 mph0.01 inFog-SnowSnow
12:53 PM32.0 °F30.0 °F92 %29.57 in0.2 miNorth (360°)13.8 mph0.02 inFog-SnowSnow
1:29 PM32.0 °F30.2 °F93 %29.56 in0.5 miNorth (360°)16.1 mph0.01 inFog-SnowSnow
1:49 PM32.0 °F30.2 °F93 %29.56 in0.2 miNorth (10°)13.8 mph20.7 mph0.01 inFog-SnowSnow
1:53 PM32.0 °F30.0 °F92 %29.57 in0.2 miNorth (360°)12.7 mph0.01 inFog-SnowHeavy Snow
2:26 PM32.0 °F30.2 °F93 %29.57 in0.5 miNNW (340°)13.8 mph0.03 inFog-SnowSnow
2:44 PM32.0 °F30.2 °F93 %29.57 in0.2 miNNW (330°)13.8 mph0.04 inFog-SnowSnow
2:53 PM32.0 °F30.9 °F96 %29.58 in0.2 miNNW (330°)16.1 mph0.04 inFog-SnowSnow
3:53 PM32.0 °F30.0 °F92 %29.60 in0.2 miNW (320°)18.4 mph24.2 mph0.04 inFog-SnowSnow
4:10 PM32.0 °F30.2 °F93 %29.60 in0.5 miNW (320°)16.1 mph24.2 mph0.00 inFog-SnowSnow
4:17 PM32.0 °F30.2 °F93 %29.60 in0.2 miNW (320°)20.7 mph25.3 mph0.00 inFog-SnowSnow
4:37 PM32.0 °F30.2 °F93 %29.61 in0.5 miNW (320°)20.7 mph0.00 inFog-SnowSnow
4:53 PM32.0 °F30.0 °F92 %29.63 in0.5 miNW (320°)17.3 mph0.00 inFog-SnowSnow
5:53 PM32.0 °F30.0 °F92 %29.66 in0.5 miNW (310°)21.9 mph31.1 mph0.01 inFog-SnowSnow
6:42 PM32.0 °F28.4 °F87 %29.68 in0.8 miWNW (300°)24.2 mph33.4 mph0.00 inSnowLight Snow
7:17 PM32.0 °F28.4 °F87 %29.71 in0.5 miNW (310°)21.9 mph29.9 mph0.01 inFog-SnowSnow
7:37 PM32.0 °F28.4 °F87 %29.72 in1.0 miWNW (300°)24.2 mph32.2 mph0.01 inSnowLight Snow
7:53 PM32.0 °F28.9 °F88 %29.74 in1.2 miWNW (300°)23.0 mph33.4 mph0.01 inSnowLight Snow
8:32 PM32.0 °F28.4 °F87 %29.74 in1.5 miNW (310°)23.0 mph29.9 mph0.00 inSnowLight Snow
8:42 PM32.0 °F28.4 °F87 %29.74 in1.5 miWNW (300°)19.6 mph0.00 inSnowLight Snow
8:53 PM32.0 °F28.9 °F88 %29.76 in2.0 miWNW (300°)20.7 mph28.8 mph0.00 inSnowLight Snow
9:06 PM32.0 °F28.4 °F87 %29.76 in1.8 miWNW (300°)20.7 mph29.9 mph0.00 inSnowLight Snow
9:20 PM32.0 °F28.4 °F87 %29.76 in1.8 miNW (310°)19.6 mph26.5 mph0.00 inSnowLight Snow
9:30 PM32.0 °F28.4 °F87 %29.77 in1.5 miWNW (300°)19.6 mph28.8 mph0.00 inSnowLight Snow
9:53 PM32.0 °F28.9 °F88 %29.78 in1.8 miNW (310°)21.9 mph29.9 mph0.00 inSnowLight Snow
9:59 PM32.0 °F28.4 °F87 %29.78 in1.8 miWNW (300°)20.7 mph29.9 mph0.00 inSnowLight Snow
10:19 PM32.0 °F28.4 °F87 %29.79 in1.5 miNW (310°)20.7 mph0.00 inSnowLight Snow
10:50 PM32.0 °F28.4 °F87 %29.80 in1.2 miNW (310°)19.6 mph0.00 inSnowLight Snow
10:53 PM32.0 °F28.9 °F88 %29.81 in1.2 miWNW (300°)20.7 mph0.00 inSnowLight Snow
11:10 PM32.0 °F28.4 °F87 %29.80 in1.0 miWNW (300°)19.6 mph0.00 inSnowLight Snow
11:17 PM32.0 °F28.4 °F87 %29.80 in1.2 miWNW (300°)18.4 mph24.2 mph0.00 inSnowLight Snow
11:53 PM32.0 °F28.9 °F88 %29.83 in1.8 miWNW (300°)19.6 mph0.00 inSnowLight Snow
Hourly data recorded from KCPS, located miles away from St. Louis - Saint Louis University, Missouri







STORIES FROM OUR PARTNERS